| time (UTC) | temp F | wind direction | speed MPH | gust MPH | rain 1hr in | rain 24hr in | rain mn in | humidity % | barometer mb |
| 20260510105004 | 52 | 67 | 0.0 | 3.0 | 0.00 | 1.02 | 0.00 | 94 | 1011.4 |
| 20260510104005 | 52 | 46 | 0.0 | 3.0 | 0.00 | 1.02 | 0.00 | 94 | 1011.4 |
| 20260509164003 | 50 | 254 | 0.0 | 2.0 | 0.04 | 1.02 | 0.25 | 93 | 1012.2 |
| 20260509163004 | 49 | 254 | 0.0 | 3.0 | 0.05 | 1.02 | 0.25 | 93 | 1012.3 |
| 20260509162003 | 49 | 255 | 0.0 | 2.0 | 0.05 | 1.02 | 0.24 | 94 | 1012.4 |
| 20260509160003 | 47 | 186 | 1.0 | 2.0 | 0.07 | 1.01 | 0.23 | 93 | 1012.8 |
| 20260509155004 | 47 | 182 | 1.0 | 3.0 | 0.07 | 1.00 | 0.22 | 93 | 1013.0 |
| 20260509152004 | 46 | 204 | 0.0 | 2.0 | 0.09 | 0.97 | 0.19 | 92 | 1013.5 |
| 20260509151004 | 45 | 202 | 0.0 | 2.0 | 0.10 | 0.97 | 0.18 | 92 | 1013.5 |
| 20260509150003 | 45 | 202 | 2.0 | 3.0 | 0.09 | 0.95 | 0.16 | 91 | 1013.4 |
| 20260509145004 | 45 | 227 | 1.0 | 2.0 | 0.09 | 0.94 | 0.15 | 91 | 1013.4 |
| 20260509144003 | 45 | 227 | 0.0 | 1.0 | 0.09 | 0.93 | 0.14 | 91 | 1013.5 |
| 20260509143004 | 44 | 227 | 0.0 | 1.0 | 0.08 | 0.91 | 0.12 | 91 | 1013.5 |
| 20260509142004 | 44 | 227 | 1.0 | 2.0 | 0.06 | 0.89 | 0.10 | 90 | 1013.4 |
| 20260509140005 | 44 | 225 | 1.0 | 3.0 | 0.04 | 0.86 | 0.07 | 90 | 1013.4 |
| 20260509135004 | 44 | 257 | 1.0 | 3.0 | 0.03 | 0.85 | 0.06 | 90 | 1013.4 |
| 20260509134003 | 44 | 263 | 1.0 | 3.0 | 0.03 | 0.84 | 0.05 | 90 | 1013.4 |
| 20260509133003 | 44 | 266 | 1.0 | 3.0 | 0.02 | 0.83 | 0.04 | 90 | 1013.3 |
| 20260509132003 | 44 | 269 | 0.0 | 2.0 | 0.02 | 0.83 | 0.04 | 90 | 1013.5 |
| 20260509131003 | 44 | 283 | 0.0 | 2.0 | 0.03 | 0.83 | 0.04 | 89 | 1013.4 |
| 20260509130004 | 43 | 284 | 1.0 | 2.0 | 0.03 | 0.82 | 0.03 | 90 | 1013.4 |
| 20260509125004 | 43 | 284 | 1.0 | 2.0 | 0.03 | 0.82 | 0.03 | 89 | 1013.5 |
| 20260509124004 | 43 | 38 | 0.0 | 0.0 | 0.02 | 0.81 | 0.02 | 89 | 1013.6 |
| 20260509123003 | 43 | 50 | 0.0 | 0.0 | 0.02 | 0.81 | 0.02 | 89 | 1013.8 |
| 20260509122004 | 43 | 51 | 0.0 | 0.0 | 0.02 | 0.81 | 0.02 | 89 | 1013.7 |
| 20260509121004 | 42 | 57 | 0.0 | 0.0 | 0.01 | 0.80 | 0.01 | 88 | 1013.8 |
| 20260509120004 | 42 | 57 | 0.0 | 0.0 | 0.00 | 0.79 | 0.00 | 88 | 1013.8 |
| 20260509114005 | 41 | 57 | 0.0 | 0.0 | 0.00 | 0.79 | 0.00 | 88 | 1014.0 |
| 20260509113003 | 41 | 57 | 0.0 | 0.0 | 0.00 | 0.79 | 0.00 | 88 | 1014.0 |
| 20260509112003 | 40 | 57 | 0.0 | 0.0 | 0.00 | 0.79 | 0.00 | 88 | 1014.0 |
| 20260509111003 | 40 | 57 | 0.0 | 0.0 | 0.00 | 0.79 | 0.00 | 89 | 1013.9 |
| 20260509110005 | 39 | 57 | 0.0 | 0.0 | 0.00 | 0.79 | 0.00 | 89 | 1013.8 |